Location: Brivio
(45.7333°N, 9.4500°E)
Time: 18:09:30
(UTC+00:00)

Cosmos 1934 Rocket - Pass Details

Date: 18 October 2019
Orbit: 939 x 998 km, 83.0° (Epoch: 20 November)

Event Time Altitude Azimuth Distance (km) Brightness Sun altitude
Rises 17:39:36 0° 350° (N) 3,704 7.2 -12.5°
Reaches altitude 10° 17:42:07 10° 349° (N) 2,759 6.5 -13.0°
Maximum altitude 17:48:27 80° 264° (W) 1,016 4.2 -14.1°
Drops below altitude 10° 17:54:48 10° 179° (S) 2,759 6.3 -15.2°
Sets 17:57:19 0° 178° (S) 3,705 7.0 -15.6°
